Regional Weather Roundup
Issued by NWS Upton, NY

Current Version | Previous Version | Graphics & Text | Print | Product List | Glossary Off
Versions: 1 2 3 4 5 6 7 8 9 10 11 12 13 14 15 16 17 18 19 20 21 22 23 24 25 26 27 28 29 30 31 32 33 34 35 36 37 38 39 40 41 42 43 44 45 46 47 48 49 50

000
ASUS41 KOKX 021104
RWROKX

REGIONAL WEATHER ROUNDUP
NATIONAL WEATHER SERVICE NEW YORK NY
700 AM EDT MON MAY 02 2016

NOTE: "FAIR" INDICATES FEW OR NO CLOUDS BELOW 12,000 FEET WITH NO
SIGNIFICANT WEATHER AND/OR OBSTRUCTIONS TO VISIBILITY.

NYZ071-072-176-178-NJZ106-104-021200-
NEW YORK CITY METRO AREA


CITY           SKY/WX    TMP DP  RH WIND       PRES   REMARKS
CENTRAL PARK   CLOUDY    46  43  89 VRB3      30.03F FOG
LAGUARDIA APRT CLOUDY    47  44  90 NE7       30.00S FOG
KENNEDY INTL   CLOUDY    47  45  93 NE6       30.02R FOG
NEWARK/LIBERTY CLOUDY    48  44  86 NE3       30.01S FOG
BRNX BOT. GARD   N/A     45  43  93 NE8       30.02R
TETERBORO      CLOUDY    46  42  86 NE6       29.99S FOG
$$

NYZ177-179-078>081-021200-
LONG ISLAND NEW YORK

CITY           SKY/WX    TMP DP  RH WIND       PRES   REMARKS
FARMINGDALE    CLOUDY    46  45  96 E5        30.00S FOG
ISLIP          CLOUDY    47  45  93 N5        30.02R FOG
SHIRLEY        CLOUDY    47  46  97 N5        30.02R FOG
RIVERHEAD        N/A     46  45  93 E3        30.01S
WESTHAMPTON    CLOUDY    45  45 100 N10       30.01S FOG
EAST HAMPTON   CLOUDY    46  46  99 NE6       29.99F FOG
MONTAUK POINT    N/A     47  46  97 N5        30.02R
$$

NYZ052-065-067-021200-
HUDSON VALLEY

CITY           SKY/WX    TMP DP  RH WIND       PRES   REMARKS
WHITE PLAINS   FOG       44  43  96 SE3       30.00S VSB 1/2
NEWBURGH       FOG       43  43 100 E6        29.99F VSB 3/8
MONTGOMERY     CLOUDY    44  43  96 SE3       29.99F
POUGHKEEPSIE   CLOUDY    46  42  86 CALM      29.99F
ALBANY         CLOUDY    45  41  86 S5        30.00S
$$

NJZ001-105-106-008-010-013-015-019>022-104-021200-
NEW JERSEY

CITY           SKY/WX    TMP DP  RH WIND       PRES   REMARKS
NEWARK/LIBERTY CLOUDY    48  44  86 NE3       30.01S FOG
TETERBORO      CLOUDY    46  42  86 NE6       29.99S FOG
CALDWELL       CLOUDY    45  43  93 E3        30.01S FOG
MORRISTOWN     CLOUDY    45  45 100 NE6       30.00S FOG
SOMERVILLE     CLOUDY    46  44  93 CALM      29.98S FOG
SUSSEX         CLOUDY    45  43  93 NE6       29.98F FOG
ANDOVER          N/A     45  43  93 VRB3      29.97F
TRENTON        FOG       46  45  96 SE9       29.99R VSB 1/4
MILLVILLE      CLOUDY    48  47  96 E3        29.99R FOG
ATLANTIC CITY  FOG       49  49 100 NE5       30.00R VSB 1/2
WRIGHTSTOWN    FOG       46  45  93 E6        29.98S VSB 1/4
TOMS RIVER     CLOUDY    46  45  93 E5        30.01R
BELMAR         CLOUDY    47  47 100 E7        30.01F FOG
$$

PAZ047>061-062-071-021200-
EASTERN PENNSYLVANIA

CITY           SKY/WX    TMP DP  RH WIND       PRES   REMARKS
PHILADELPHIA   CLOUDY    49  45  86 SE6       30.01R
ALLENTOWN      CLOUDY    47  44  90 SE6       29.98R FOG
SCRANTON       CLOUDY    48  44  86 NE5       29.91F
$$

CTZ002-004>006-009-010-012-RIZ004-006-007-MAZ004-011-015-021200-
SOUTHERN NEW ENGLAND
 IN CT

CITY           SKY/WX    TMP DP  RH WIND       PRES   REMARKS
BRADLEY INTL   CLOUDY    43  41  93 N7        30.02F
HARTFORD       CLOUDY    45  42  89 N8        30.03S FOG
DANBURY        CLOUDY    43  41  93 E3        30.01S FOG
WTRBRY/OXFORD  FOG       43  39  87 E6        30.01F VSB 1/4
BRIDGEPORT     CLOUDY    46  43  89 NE8       30.01S
MERIDEN        CLOUDY    44  41  89 N6        30.02F
NEW HAVEN      CLOUDY    44  43  96 N7        30.01S FOG
CHESTER        CLOUDY    43  43 100 N6        30.01R FOG
GROTON         CLOUDY    46  46 100 N8        30.00F
WILLIMANTIC    CLOUDY    46  42  86 NE5       30.02F

 IN RI

CITY           SKY/WX    TMP DP  RH WIND       PRES   REMARKS
PROVIDENCE     CLOUDY    46  44  93 N9        30.04R FOG
BLOCK ISLAND   CLOUDY    47  46  97 N7        30.01S FOG
WESTERLY       CLOUDY    47  44  90 N6        30.01S

 IN MA

CITY           SKY/WX    TMP DP  RH WIND       PRES   REMARKS
BOSTON         FOG       46  45  96 NE10      30.06S VSB 1/2
WORCESTER      FOG       39  39 100 NE8       30.02F VSB<1/4 WCI  33
WESTFIELD      CLOUDY    42  40  92 N7        30.03F
PROVINCETOWN   CLOUDY    48  47  96 E9        30.04S FOG
NANTUCKET      CLOUDY    52  49  89 E13       29.99R FOG
$$

ANZ330-335-338-340-345-350-353-355-021200-
COASTAL MARINE OBSERVATIONS


STATION/POSITION TIME  SKY/WX   TEMP    WIND        PRES    VSBY  WAVE
                                AIR SEA DIR/SP/G                  HT/PER
                 (UTC)          (F)     (DEG/KT/KT) (MB)    (MI)  (FT/S)
NY HARB ENTRANCE 0950            48 50   40/ 10/ 12 1015.1          4/11
20S FIRE ISLAND  0950            47 48   40/ 12/ 14 1015.2          5/10
GREAT SOUTH BAY  1015            47 55   30/  8/ 12   N/A
23 SSW MONTAUK P 0950            47 47   20/ 10/ 12 1015.5          5/10
15 E BARNEGAT LI 1022               51                N/A           5/11
HUDSON CANYON    0950            48 48              1015.3          6/10
KINGS POINT      1000            46 53              1015.9
EXECUTION ROCKS  NOT AVBL
CENTRAL LI SOUND 1000            46      30/  8/ 10   N/A           1/ 4
EASTERN LI SOUND 1000            46 47   10/  8/ 10   N/A
ROBBINS REEF     1000            46     350/  6/  8 1015.6
$$


>>>>>>>>>>>>>>>>>>>>>>>>>>>> KEY <<<<<<<<<<<<<<<<<<<<<<<<<<<
>                                                          <
>     SKY/WX - SKY CONDITION/PRESENT WEATHER               <
>     TMP    - TEMPERATURE IN FAHRENHEIT                   <
>     DP     - DEWPOINT IN FAHRENHEIT                      <
>     RH     - RELATIVE HUMIDITY IN PERCENT                <
>     WIND   - DIRECTION AND SPEED IN MPH                  <
>     PRES   - MEAN SEA LEVEL PRESSURE IN INCHES OF HG     <
>     WCI    - WIND CHILL INDEX                            <
>     VSB    - VISIBILITY IN MILES                         <
>     HX     - HEAT INDEX                                  <
>     TC     - TEMPERATURE IN CELSIUS                      <
>     VRB    - VARIABLE WIND DIRECTION                     <
>                                                          <
>>>>>>>>>>>>>>>>>>>>>>>>>>>> KEY <<<<<<<<<<<<<<<<<<<<<<<<<<<





USA.gov is the U.S. government's official web portal to all federal, state and local government web resources and services.